User: anonymous   Login
Location: Paralde Spring
(38.5794°N, 119.0140°W)
Time: 06:46:21
(UTC+00:00)
Language:

Cosmos 1777 Rocket - Orbit

View from above orbital plane
View from above orbital plane
View from above satellite
View from above satellite

Ground track
Ground track

The orbit data is extracted from the following two-line orbital elements,

1 16953U 86070B   20336.67198723  .00000060  00000-0  28930-4 0  9994
2 16953  74.0115 108.1777 0011864  22.3795 337.7874 14.37401872793581
Epoch (UTC): 01 December 2020 16:07:39
Eccentricity: 0.0011864
inclination: 74.0115°
perigee height: 758 km
apogee height: 775 km
right ascension of ascending node: 108.1777°
argument of perigee: 22.3795°
revolutions per day: 14.37401872
mean anomaly at epoch: 337.7874°
orbit number at epoch: 79358

The dashed part of the orbit path shows where the satellite is in the earth's shadow,  

DLR